^^
Saratoga-Weather Station Historical Data
Daily Summary for July 30, 2021 Units:  Metric    English   Both
Daily Weekly Monthly Yearly Custom
  High: Low: Average:
Temperature: 21.6 °C 14.3 °C 17.3 °C
Dew Point: 15.3 °C 13.2 °C 14.1 °C
Humidity: 95% 65% 82%
Wind Speed: 16.3km/h 0km/h 4.2km/h
Wind Gust: 19.3km/h - -
Wind- - West
Pressure: 1019.3 hPa 1016.3 hPa -
Precipitation: 0.5 mm    
Historical Graphs
 
 
Tabular Data for July 30, 2021
Time Temperature Dew Point Pressure Wind Wind Speed Wind Gust Humidity Rainfall Rate (Hourly) solar
00:02 14.7 °C 13.4 °C 1016.9 hPa West 4.7 km/h 9.7 km/h 92% 0.0 mm 0 W/m2
00:07 14.7 °C 13.4 °C 1016.9 hPa West 6.4 km/h 11.3 km/h 92% 0.0 mm 0 W/m2
00:12 14.7 °C 13.4 °C 1016.9 hPa West 4.7 km/h 11.3 km/h 92% 0.0 mm 0 W/m2
00:17 14.6 °C 13.3 °C 1016.9 hPa WNW 3.2 km/h 4.8 km/h 92% 0.0 mm 0 W/m2
00:22 14.6 °C 13.3 °C 1016.9 hPa WNW 4.7 km/h 11.3 km/h 92% 0.0 mm 0 W/m2
00:27 14.6 °C 13.3 °C 1016.9 hPa West 3.2 km/h 4.8 km/h 92% 0.0 mm 0 W/m2
00:32 14.6 °C 13.3 °C 1016.9 hPa West 6.4 km/h 9.7 km/h 92% 0.0 mm 0 W/m2
00:37 14.7 °C 13.4 °C 1016.9 hPa West 4.7 km/h 6.4 km/h 92% 0.0 mm 0 W/m2
00:43 14.6 °C 13.3 °C 1016.9 hPa West 3.2 km/h 6.4 km/h 92% 0.0 mm 0 W/m2
00:48 14.6 °C 13.3 °C 1016.9 hPa West 1.4 km/h 6.4 km/h 92% 0.0 mm 0 W/m2
00:53 14.7 °C 13.4 °C 1016.9 hPa WSW 3.2 km/h 3.2 km/h 92% 0.0 mm 0 W/m2
00:58 14.7 °C 13.4 °C 1016.9 hPa WSW 1.4 km/h 6.4 km/h 92% 0.0 mm 0 W/m2
01:03 14.7 °C 13.4 °C 1016.9 hPa WSW 3.2 km/h 6.4 km/h 92% 0.0 mm 0 W/m2
01:08 14.7 °C 13.4 °C 1016.9 hPa SW 3.2 km/h 6.4 km/h 92% 0.0 mm 0 W/m2
01:13 14.7 °C 13.4 °C 1016.9 hPa WSW 3.2 km/h 6.4 km/h 92% 0.0 mm 0 W/m2
01:18 14.7 °C 13.2 °C 1016.6 hPa West 1.4 km/h 6.4 km/h 91% 0.0 mm 0 W/m2
01:23 14.8 °C 13.3 °C 1016.6 hPa West 4.7 km/h 6.4 km/h 91% 0.0 mm 0 W/m2
01:28 14.8 °C 13.3 °C 1016.9 hPa West 3.2 km/h 6.4 km/h 91% 0.0 mm 0 W/m2
01:33 14.8 °C 13.3 °C 1016.9 hPa West 3.2 km/h 6.4 km/h 91% 0.0 mm 0 W/m2
01:38 14.8 °C 13.3 °C 1016.9 hPa WNW 4.7 km/h 4.8 km/h 91% 0.0 mm 0 W/m2
01:43 14.8 °C 13.3 °C 1016.9 hPa West 3.2 km/h 8 km/h 91% 0.0 mm 0 W/m2
01:48 14.8 °C 13.3 °C 1016.9 hPa West 4.7 km/h 6.4 km/h 91% 0.0 mm 0 W/m2
01:53 14.8 °C 13.3 °C 1016.6 hPa WSW 4.7 km/h 9.7 km/h 91% 0.0 mm 0 W/m2
01:58 14.8 °C 13.3 °C 1016.6 hPa West 3.2 km/h 6.4 km/h 91% 0.0 mm 0 W/m2
02:03 14.8 °C 13.3 °C 1016.6 hPa West 4.7 km/h 4.8 km/h 91% 0.0 mm 0 W/m2
02:08 14.7 °C 13.2 °C 1016.6 hPa WSW 3.2 km/h 9.7 km/h 91% 0.0 mm 0 W/m2
02:13 14.7 °C 13.2 °C 1016.6 hPa WSW 1.4 km/h 4.8 km/h 91% 0.0 mm 0 W/m2
02:18 14.7 °C 13.2 °C 1016.6 hPa Calm   9.7 km/h 91% 0.0 mm 0 W/m2
02:23 14.7 °C 13.2 °C 1016.6 hPa West 3.2 km/h 4.8 km/h 91% 0.0 mm 0 W/m2
02:28 14.7 °C 13.2 °C 1016.6 hPa West 1.4 km/h 8 km/h 91% 0.0 mm 0 W/m2
02:33 14.7 °C 13.2 °C 1016.6 hPa West 1.4 km/h 6.4 km/h 91% 0.0 mm 0 W/m2
02:38 14.7 °C 13.2 °C 1016.6 hPa West 3.2 km/h 6.4 km/h 91% 0.0 mm 0 W/m2
02:43 14.7 °C 13.2 °C 1016.6 hPa West 3.2 km/h 4.8 km/h 91% 0.0 mm 0 W/m2
02:48 14.7 °C 13.4 °C 1016.6 hPa West 4.7 km/h 4.8 km/h 92% 0.0 mm 0 W/m2
02:53 14.7 °C 13.4 °C 1016.6 hPa West 3.2 km/h 3.2 km/h 92% 0.0 mm 0 W/m2
02:58 14.7 °C 13.4 °C 1016.3 hPa West 3.2 km/h 6.4 km/h 92% 0.0 mm 0 W/m2
03:03 14.7 °C 13.4 °C 1016.6 hPa West 3.2 km/h 4.8 km/h 92% 0.0 mm 0 W/m2
03:08 14.7 °C 13.4 °C 1016.6 hPa West 4.7 km/h 6.4 km/h 92% 0.0 mm 0 W/m2
03:13 14.7 °C 13.4 °C 1016.6 hPa West 4.7 km/h 9.7 km/h 92% 0.0 mm 0 W/m2
03:18 14.8 °C 13.5 °C 1016.6 hPa WNW 3.2 km/h 9.7 km/h 92% 0.0 mm 0 W/m2
03:23 14.8 °C 13.5 °C 1016.6 hPa WNW 3.2 km/h 6.4 km/h 92% 0.0 mm 0 W/m2
03:28 14.7 °C 13.4 °C 1016.6 hPa WSW 6.4 km/h 6.4 km/h 92% 0.0 mm 0 W/m2
03:33 14.6 °C 13.5 °C 1016.6 hPa West 4.7 km/h 6.4 km/h 93% 0.0 mm 0 W/m2
03:38 14.5 °C 13.4 °C 1016.6 hPa West 4.7 km/h 6.4 km/h 93% 0.2 mm 0 W/m2
03:43 14.4 °C 13.3 °C 1016.6 hPa WNW 4.7 km/h 6.4 km/h 93% 0.2 mm 0 W/m2
03:48 14.4 °C 13.4 °C 1016.6 hPa West 3.2 km/h 6.4 km/h 94% 0.2 mm 0 W/m2
03:53 14.3 °C 13.3 °C 1016.6 hPa West 6.4 km/h 9.7 km/h 94% 0.2 mm 0 W/m2
03:58 14.3 °C 13.3 °C 1016.3 hPa WNW 3.2 km/h 9.7 km/h 94% 0.2 mm 0 W/m2
04:03 14.3 °C 13.3 °C 1016.3 hPa WNW 3.2 km/h 4.8 km/h 94% 0.2 mm 0 W/m2
04:08 14.3 °C 13.3 °C 1016.3 hPa West 3.2 km/h 9.7 km/h 94% 0.2 mm 0 W/m2
04:13 14.3 °C 13.3 °C 1016.3 hPa West 3.2 km/h 6.4 km/h 94% 0.2 mm 0 W/m2
04:18 14.3 °C 13.3 °C 1016.3 hPa West 4.7 km/h 6.4 km/h 94% 0.2 mm 0 W/m2
04:23 14.3 °C 13.3 °C 1016.3 hPa WSW 6.4 km/h 6.4 km/h 94% 0.2 mm 0 W/m2
04:28 14.4 °C 13.4 °C 1016.3 hPa WSW 3.2 km/h 6.4 km/h 94% 0.5 mm 0 W/m2
04:33 14.4 °C 13.4 °C 1016.3 hPa West 1.4 km/h 6.4 km/h 94% 0.5 mm 0 W/m2
04:38 14.5 °C 13.5 °C 1016.3 hPa WSW 4.7 km/h 4.8 km/h 94% 0.2 mm 0 W/m2
04:43 14.5 °C 13.5 °C 1016.3 hPa SW 1.4 km/h 6.4 km/h 94% 0.2 mm 0 W/m2
04:48 14.6 °C 13.8 °C 1016.3 hPa WSW 3.2 km/h 6.4 km/h 95% 0.2 mm 0 W/m2
04:53 14.6 °C 13.8 °C 1016.3 hPa WSW 1.4 km/h 3.2 km/h 95% 0.2 mm 0 W/m2
04:58 14.6 °C 13.8 °C 1016.3 hPa WSW 3.2 km/h 6.4 km/h 95% 0.5 mm 0 W/m2
05:03 14.6 °C 13.8 °C 1016.3 hPa WSW 3.2 km/h 6.4 km/h 95% 0.5 mm 0 W/m2
05:08 14.6 °C 13.8 °C 1016.3 hPa Calm     95% 0.5 mm 0 W/m2
05:13 14.6 °C 13.8 °C 1016.3 hPa Calm   6.4 km/h 95% 0.5 mm 0 W/m2
05:18 14.6 °C 13.8 °C 1016.3 hPa Calm     95% 0.5 mm 0 W/m2
05:23 14.6 °C 13.8 °C 1016.3 hPa NW 1.4 km/h 1.6 km/h 95% 0.5 mm 0 W/m2
05:28 14.7 °C 13.9 °C 1016.3 hPa NW 1.4 km/h 3.2 km/h 95% 0.2 mm 0 W/m2
05:33 14.7 °C 13.9 °C 1016.3 hPa NW 1.4 km/h 1.6 km/h 95% 0.2 mm 0 W/m2
05:38 14.7 °C 13.9 °C 1016.3 hPa Calm     95% 0.2 mm 0 W/m2
05:43 14.7 °C 13.9 °C 1016.3 hPa Calm     95% 0.2 mm 0 W/m2
05:48 14.7 °C 13.9 °C 1016.3 hPa NW 1.4 km/h 3.2 km/h 95% 0.2 mm 0 W/m2
05:53 14.7 °C 13.9 °C 1016.3 hPa Calm   1.6 km/h 95% 0.2 mm 0 W/m2
05:58 14.7 °C 13.9 °C 1016.3 hPa NNW 3.2 km/h 6.4 km/h 95% 0.0 mm 0 W/m2
06:03 14.7 °C 13.9 °C 1016.3 hPa NNW 1.4 km/h 3.2 km/h 95% 0.0 mm 0 W/m2
06:08 14.7 °C 13.9 °C 1016.3 hPa Calm   6.4 km/h 95% 0.0 mm 0 W/m2
06:13 14.7 °C 13.9 °C 1016.3 hPa West 3.2 km/h 3.2 km/h 95% 0.0 mm 0 W/m2
06:18 14.7 °C 13.9 °C 1016.3 hPa WNW 3.2 km/h 4.8 km/h 95% 0.0 mm 0 W/m2
06:23 14.8 °C 14 °C 1016.3 hPa West 3.2 km/h 3.2 km/h 95% 0.0 mm 0 W/m2
06:28 14.8 °C 13.8 °C 1016.3 hPa WNW 3.2 km/h 4.8 km/h 94% 0.0 mm 0 W/m2
06:33 14.9 °C 13.9 °C 1016.6 hPa WNW 4.7 km/h 9.7 km/h 94% 0.0 mm 0 W/m2
06:38 15 °C 13.9 °C 1016.6 hPa WNW 1.4 km/h 3.2 km/h 93% 0.0 mm 0 W/m2
06:43 15 °C 13.9 °C 1016.6 hPa SW 4.7 km/h 6.4 km/h 93% 0.0 mm 0 W/m2
06:48 15.1 °C 14 °C 1016.6 hPa WSW 3.2 km/h 3.2 km/h 93% 0.0 mm 0 W/m2
06:53 15.1 °C 14 °C 1016.6 hPa NW 3.2 km/h 6.4 km/h 93% 0.0 mm 0 W/m2
06:58 15.1 °C 14 °C 1016.6 hPa West 3.2 km/h 3.2 km/h 93% 0.0 mm 0 W/m2
07:04 15.1 °C 13.8 °C 1016.6 hPa West 3.2 km/h 6.4 km/h 92% 0.0 mm 0 W/m2
07:09 15.2 °C 13.9 °C 1016.6 hPa West 1.4 km/h 3.2 km/h 92% 0.0 mm 5 W/m2
07:14 15.2 °C 13.9 °C 1016.9 hPa WNW 6.4 km/h 6.4 km/h 92% 0.0 mm 5 W/m2
07:19 15.3 °C 14 °C 1016.9 hPa West 6.4 km/h 8 km/h 92% 0.0 mm 5 W/m2
07:24 15.4 °C 13.9 °C 1016.9 hPa WNW 1.4 km/h 6.4 km/h 91% 0.0 mm 5 W/m2
07:29 15.4 °C 13.9 °C 1016.9 hPa Calm   4.8 km/h 91% 0.0 mm 5 W/m2
07:34 15.5 °C 14 °C 1016.9 hPa WNW 3.2 km/h 6.4 km/h 91% 0.0 mm 5 W/m2
07:39 15.5 °C 14 °C 1016.9 hPa WNW 3.2 km/h 4.8 km/h 91% 0.0 mm 7 W/m2
07:44 15.6 °C 14.1 °C 1016.9 hPa Calm   4.8 km/h 91% 0.0 mm 7 W/m2
07:49 15.5 °C 14 °C 1016.9 hPa WNW 3.2 km/h 4.8 km/h 91% 0.0 mm 5 W/m2
07:54 15.5 °C 14 °C 1016.9 hPa NW 3.2 km/h 4.8 km/h 91% 0.0 mm 9 W/m2
07:59 15.6 °C 14.1 °C 1016.9 hPa NW 1.4 km/h 3.2 km/h 91% 0.0 mm 12 W/m2
08:04 15.5 °C 14 °C 1016.9 hPa NW 3.2 km/h 4.8 km/h 91% 0.0 mm 18 W/m2
08:09 15.5 °C 14 °C 1016.9 hPa West 3.2 km/h 4.8 km/h 91% 0.0 mm 25 W/m2
08:14 15.6 °C 14.1 °C 1016.9 hPa WNW 3.2 km/h 3.2 km/h 91% 0.0 mm 25 W/m2
08:19 15.7 °C 14.2 °C 1016.9 hPa WNW 4.7 km/h 6.4 km/h 91% 0.0 mm 25 W/m2
08:24 15.7 °C 14.1 °C 1016.9 hPa West 6.4 km/h 9.7 km/h 90% 0.0 mm 26 W/m2
08:29 15.8 °C 14.2 °C 1016.9 hPa WNW 3.2 km/h 14.5 km/h 90% 0.0 mm 28 W/m2
08:34 15.9 °C 14.3 °C 1016.9 hPa WNW 1.4 km/h 8 km/h 90% 0.0 mm 35 W/m2
08:39 15.9 °C 14.1 °C 1016.9 hPa West 4.7 km/h 14.5 km/h 89% 0.0 mm 40 W/m2
08:44 15.9 °C 14.1 °C 1016.9 hPa WNW 6.4 km/h 9.7 km/h 89% 0.0 mm 35 W/m2
08:49 16 °C 14.2 °C 1017.3 hPa WNW 9.7 km/h 12.9 km/h 89% 0.0 mm 33 W/m2
08:54 16.1 °C 14.3 °C 1016.9 hPa West 3.2 km/h 4.8 km/h 89% 0.0 mm 39 W/m2
08:59 16.1 °C 14.3 °C 1016.9 hPa NW 3.2 km/h 12.9 km/h 89% 0.0 mm 42 W/m2
09:04 16.1 °C 14.3 °C 1016.9 hPa NNW 4.7 km/h 9.7 km/h 89% 0.0 mm 88 W/m2
09:09 16.2 °C 14.4 °C 1016.9 hPa West 6.4 km/h 12.9 km/h 89% 0.0 mm 90 W/m2
09:14 16.2 °C 14.4 °C 1016.9 hPa WNW 4.7 km/h 4.8 km/h 89% 0.0 mm 77 W/m2
09:19 16.2 °C 14.2 °C 1016.9 hPa WSW 6.4 km/h 12.9 km/h 88% 0.0 mm 70 W/m2
09:24 16.3 °C 14.3 °C 1016.9 hPa North 4.7 km/h 9.7 km/h 88% 0.0 mm 76 W/m2
09:29 16.4 °C 14.2 °C 1017.3 hPa NW 13 km/h 12.9 km/h 87% 0.0 mm 93 W/m2
09:34 16.4 °C 14.2 °C 1017.3 hPa NW 4.7 km/h 12.9 km/h 87% 0.0 mm 102 W/m2
09:39 16.6 °C 14.2 °C 1017.3 hPa North 4.7 km/h 6.4 km/h 86% 0.0 mm 121 W/m2
09:44 16.6 °C 14.2 °C 1017.3 hPa NW 1.4 km/h 12.9 km/h 86% 0.0 mm 123 W/m2
09:49 16.7 °C 14.3 °C 1017.3 hPa WNW 4.7 km/h 6.4 km/h 86% 0.0 mm 123 W/m2
09:54 16.7 °C 14.3 °C 1017.3 hPa West 4.7 km/h 14.5 km/h 86% 0.0 mm 104 W/m2
09:59 16.8 °C 14.4 °C 1017.3 hPa NW 1.4 km/h 4.8 km/h 86% 0.0 mm 120 W/m2
10:04 16.8 °C 14.3 °C 1017.3 hPa North 6.4 km/h 14.5 km/h 85% 0.0 mm 144 W/m2
10:09 16.9 °C 14.4 °C 1017.6 hPa NNW 1.4 km/h 4.8 km/h 85% 0.0 mm 137 W/m2
10:14 16.9 °C 14.5 °C 1017.6 hPa WNW 8 km/h 8 km/h 86% 0.0 mm 141 W/m2
10:19 17 °C 14.5 °C 1017.6 hPa NNW 6.4 km/h 8 km/h 85% 0.0 mm 137 W/m2
10:24 17 °C 14.5 °C 1017.6 hPa NNW 4.7 km/h 9.7 km/h 85% 0.0 mm 137 W/m2
10:29 17.1 °C 14.6 °C 1017.6 hPa WNW 7.9 km/h 9.7 km/h 85% 0.0 mm 132 W/m2
10:34 17.1 °C 14.6 °C 1017.6 hPa WNW 1.4 km/h 11.3 km/h 85% 0.0 mm 139 W/m2
10:39 17.2 °C 14.5 °C 1017.6 hPa NW 3.2 km/h 12.9 km/h 84% 0.0 mm 146 W/m2
10:44 17.2 °C 14.7 °C 1017.6 hPa West 6.4 km/h 8 km/h 85% 0.0 mm 165 W/m2
10:49 17.3 °C 14.6 °C 1017.6 hPa WNW 6.4 km/h 12.9 km/h 84% 0.0 mm 223 W/m2
10:54 17.4 °C 14.5 °C 1017.6 hPa WSW 3.2 km/h 11.3 km/h 83% 0.0 mm 285 W/m2
10:59 17.7 °C 14.8 °C 1017.6 hPa NW 7.9 km/h 12.9 km/h 83% 0.0 mm 703 W/m2
11:04 18.1 °C 14.8 °C 1017.6 hPa NNW 6.4 km/h 14.5 km/h 81% 0.0 mm 601 W/m2
11:09 18.4 °C 14.7 °C 1017.6 hPa NW 7.9 km/h 12.9 km/h 79% 0.0 mm 304 W/m2
11:14 18.4 °C 14.7 °C 1017.6 hPa WNW 1.4 km/h 6.4 km/h 79% 0.0 mm 267 W/m2
11:19 18.5 °C 14.8 °C 1017.6 hPa WNW 4.7 km/h 11.3 km/h 79% 0.0 mm 302 W/m2
11:24 18.6 °C 14.9 °C 1017.6 hPa WSW 11.1 km/h 14.5 km/h 79% 0.0 mm 304 W/m2
11:29 18.7 °C 14.8 °C 1018.0 hPa NW 6.4 km/h 14.5 km/h 78% 0.0 mm 279 W/m2
11:34 18.6 °C 14.7 °C 1017.6 hPa SW 7.9 km/h 14.5 km/h 78% 0.0 mm 246 W/m2
11:39 18.5 °C 14.4 °C 1018.0 hPa WNW 6.4 km/h 12.9 km/h 77% 0.0 mm 262 W/m2
11:44 18.5 °C 14.6 °C 1018.0 hPa NNE 3.2 km/h 6.4 km/h 78% 0.0 mm 158 W/m2
11:49 18.4 °C 14.3 °C 1017.6 hPa NNW 6.4 km/h 16.1 km/h 77% 0.0 mm 197 W/m2
11:54 18.6 °C 14.9 °C 1018.0 hPa East 1.4 km/h 11.3 km/h 79% 0.0 mm 251 W/m2
11:59 18.9 °C 14.8 °C 1018.0 hPa ENE 1.4 km/h 16.1 km/h 77% 0.0 mm 251 W/m2
12:04 19.4 °C 15.3 °C 1017.6 hPa SSE 4.7 km/h 6.4 km/h 77% 0.0 mm 712 W/m2
12:09 19.8 °C 14.8 °C 1017.6 hPa ESE 3.2 km/h 12.9 km/h 73% 0.0 mm 251 W/m2
12:14 19.7 °C 14.5 °C 1017.6 hPa West 6.4 km/h 9.7 km/h 72% 0.0 mm 262 W/m2
12:19 19.8 °C 14.8 °C 1017.6 hPa NNE 3.2 km/h 4.8 km/h 73% 0.0 mm 262 W/m2
12:24 20 °C 14.8 °C 1017.6 hPa WNW 11.1 km/h 12.9 km/h 72% 0.0 mm 339 W/m2
12:29 19.9 °C 14.9 °C 1017.6 hPa NNE 6.4 km/h 9.7 km/h 73% 0.0 mm 288 W/m2
12:34 19.8 °C 14.8 °C 1017.6 hPa West 9.7 km/h 16.1 km/h 73% 0.0 mm 278 W/m2
12:39 19.7 °C 14.5 °C 1017.6 hPa ENE 4.7 km/h 16.1 km/h 72% 0.0 mm 362 W/m2
12:44 19.7 °C 14.5 °C 1017.6 hPa NNW 4.7 km/h 12.9 km/h 72% 0.0 mm 297 W/m2
12:49 19.8 °C 14.6 °C 1017.6 hPa West 6.4 km/h 16.1 km/h 72% 0.0 mm 800 W/m2
12:54 20.2 °C 14.8 °C 1017.6 hPa East 4.7 km/h 9.7 km/h 71% 0.0 mm 320 W/m2
12:59 20.3 °C 14.2 °C 1017.6 hPa SSW 1.4 km/h 6.4 km/h 68% 0.0 mm 200 W/m2
13:04 20.3 °C 14.6 °C 1018.0 hPa NW 4.7 km/h 9.7 km/h 70% 0.0 mm 176 W/m2
13:09 20.1 °C 14.2 °C 1017.6 hPa West 1.4 km/h 9.7 km/h 69% 0.0 mm 232 W/m2
13:14 20.1 °C 14.7 °C 1017.6 hPa WSW 3.2 km/h 9.7 km/h 71% 0.0 mm 345 W/m2
13:19 20.1 °C 14.7 °C 1017.6 hPa Calm   6.4 km/h 71% 0.0 mm 327 W/m2
13:24 20.2 °C 14.8 °C 1017.6 hPa Calm   4.8 km/h 71% 0.0 mm 346 W/m2
13:29 20.4 °C 14.5 °C 1017.6 hPa ENE 1.4 km/h 8 km/h 69% 0.0 mm 373 W/m2
13:34 20.6 °C 14.7 °C 1017.6 hPa WNW 7.9 km/h 16.1 km/h 69% 0.0 mm 308 W/m2
13:39 20.4 °C 14.3 °C 1018.0 hPa NNW 4.7 km/h 16.1 km/h 68% 0.0 mm 267 W/m2
13:44 20.2 °C 14.3 °C 1018.0 hPa NW 1.4 km/h 4.8 km/h 69% 0.0 mm 207 W/m2
13:49 20.2 °C 14.6 °C 1017.6 hPa SW 11.1 km/h 14.5 km/h 70% 0.0 mm 202 W/m2
13:54 20 °C 14.4 °C 1018.0 hPa WNW 3.2 km/h 9.7 km/h 70% 0.0 mm 121 W/m2
13:59 19.9 °C 14.3 °C 1018.0 hPa WNW 4.7 km/h 14.5 km/h 70% 0.0 mm 144 W/m2
14:04 19.8 °C 14.4 °C 1018.0 hPa NW 3.2 km/h 11.3 km/h 71% 0.0 mm 167 W/m2
14:09 19.8 °C 14.4 °C 1017.6 hPa NW 6.4 km/h 9.7 km/h 71% 0.0 mm 162 W/m2
14:14 19.8 °C 14.4 °C 1018.0 hPa NW 6.4 km/h 9.7 km/h 71% 0.0 mm 162 W/m2
14:19 19.8 °C 14.4 °C 1018.0 hPa NNW 9.7 km/h 17.7 km/h 71% 0.0 mm 185 W/m2
14:24 19.8 °C 14.4 °C 1018.0 hPa West 4.7 km/h 17.7 km/h 71% 0.0 mm 246 W/m2
14:29 19.8 °C 14.4 °C 1018.0 hPa WNW 6.4 km/h 11.3 km/h 71% 0.0 mm 306 W/m2
14:34 20 °C 14.4 °C 1018.0 hPa NNW 3.2 km/h 17.7 km/h 70% 0.0 mm 315 W/m2
14:39 20.3 °C 14.4 °C 1018.0 hPa NE 7.9 km/h 8 km/h 69% 0.0 mm 315 W/m2
14:44 20.6 °C 14.5 °C 1018.0 hPa WNW 4.7 km/h 17.7 km/h 68% 0.0 mm 369 W/m2
14:49 20.8 °C 14.4 °C 1018.0 hPa West 4.7 km/h 11.3 km/h 67% 0.0 mm 334 W/m2
14:54 20.9 °C 14.8 °C 1018.0 hPa NW 6.4 km/h 17.7 km/h 68% 0.0 mm 835 W/m2
14:59 21.1 °C 14.7 °C 1018.0 hPa ENE 1.4 km/h 6.4 km/h 67% 0.0 mm 297 W/m2
15:04 21.2 °C 14.6 °C 1018.0 hPa WNW 4.7 km/h 12.9 km/h 66% 0.0 mm 341 W/m2
15:09 21.2 °C 14.4 °C 1017.6 hPa WNW 11.1 km/h 12.9 km/h 65% 0.0 mm 348 W/m2
15:14 21.3 °C 14.7 °C 1017.6 hPa NW 9.7 km/h 11.3 km/h 66% 0.0 mm 895 W/m2
15:19 21.5 °C 14.6 °C 1017.6 hPa NW 4.7 km/h 8 km/h 65% 0.0 mm 76 W/m2
15:24 21.2 °C 14.6 °C 1018.0 hPa NW 11.1 km/h 12.9 km/h 66% 0.0 mm 84 W/m2
15:29 20.5 °C 14.2 °C 1018.0 hPa NW 4.7 km/h 8 km/h 67% 0.0 mm 113 W/m2
15:34 20.3 °C 14.2 °C 1017.6 hPa SSE 3.2 km/h 6.4 km/h 68% 0.0 mm 163 W/m2
15:39 20.6 °C 14.7 °C 1017.6 hPa SSW 3.2 km/h 8 km/h 69% 0.0 mm 744 W/m2
15:44 21.1 °C 15 °C 1017.6 hPa WNW 4.7 km/h 14.5 km/h 68% 0.0 mm 770 W/m2
15:49 21.3 °C 14.5 °C 1017.6 hPa WNW 4.7 km/h 9.7 km/h 65% 0.0 mm 146 W/m2
15:54 21.2 °C 14.6 °C 1017.6 hPa West 4.7 km/h 16.1 km/h 66% 0.0 mm 635 W/m2
15:59 21.2 °C 14.4 °C 1017.6 hPa North 3.2 km/h 12.9 km/h 65% 0.0 mm 229 W/m2
16:04 21.3 °C 14.5 °C 1017.6 hPa SE 1.4 km/h 8 km/h 65% 0.0 mm 185 W/m2
16:09 21.4 °C 14.5 °C 1017.6 hPa ENE 7.9 km/h 14.5 km/h 65% 0.0 mm 647 W/m2
16:14 21.6 °C 14.7 °C 1017.6 hPa West 14.3 km/h 17.7 km/h 65% 0.0 mm 689 W/m2
16:20 21.4 °C 14.5 °C 1017.6 hPa ENE 4.7 km/h 12.9 km/h 65% 0.0 mm 220 W/m2
16:25 21.3 °C 14.9 °C 1017.6 hPa ENE 3.2 km/h 16.1 km/h 67% 0.0 mm 490 W/m2
16:30 21.3 °C 14.7 °C 1017.6 hPa West 9.7 km/h 12.9 km/h 66% 0.0 mm 236 W/m2
16:35 21.1 °C 14.5 °C 1018.0 hPa NW 6.4 km/h 14.5 km/h 66% 0.0 mm 237 W/m2
16:40 21.1 °C 14.7 °C 1017.6 hPa North 11.1 km/h 14.5 km/h 67% 0.0 mm 216 W/m2
16:45 21.2 °C 14.8 °C 1017.6 hPa NE 3.2 km/h 9.7 km/h 67% 0.0 mm 265 W/m2
16:50 21.2 °C 14.6 °C 1017.6 hPa WNW 4.7 km/h 19.3 km/h 66% 0.0 mm 220 W/m2
16:55 20.9 °C 14.8 °C 1017.6 hPa WSW 7.9 km/h 9.7 km/h 68% 0.0 mm 253 W/m2
17:00 20.8 °C 14.7 °C 1017.6 hPa SW 7.9 km/h 17.7 km/h 68% 0.0 mm 503 W/m2
17:05 20.9 °C 14.8 °C 1017.6 hPa NW 13 km/h 16.1 km/h 68% 0.0 mm 506 W/m2
17:10 21.1 °C 14.7 °C 1017.6 hPa NW 4.7 km/h 14.5 km/h 67% 0.0 mm 499 W/m2
17:15 21.2 °C 14.6 °C 1017.6 hPa West 4.7 km/h 11.3 km/h 66% 0.0 mm 512 W/m2
17:20 21.2 °C 14.8 °C 1017.6 hPa West 9.7 km/h 16.1 km/h 67% 0.0 mm 554 W/m2
17:25 21.4 °C 15 °C 1017.6 hPa WNW 16.3 km/h 17.7 km/h 67% 0.0 mm 552 W/m2
17:30 21.4 °C 14.5 °C 1017.6 hPa West 3.2 km/h 12.9 km/h 65% 0.0 mm 197 W/m2
17:35 21.3 °C 14.5 °C 1018.0 hPa WNW 3.2 km/h 6.4 km/h 65% 0.0 mm 564 W/m2
17:40 21.3 °C 14.5 °C 1018.0 hPa NNW 9.7 km/h 14.5 km/h 65% 0.0 mm 232 W/m2
17:45 21 °C 14.6 °C 1018.0 hPa WNW 4.7 km/h 12.9 km/h 67% 0.0 mm 248 W/m2
17:50 20.9 °C 14.5 °C 1018.0 hPa SSW 3.2 km/h 11.3 km/h 67% 0.0 mm 359 W/m2
17:55 20.9 °C 14.5 °C 1018.0 hPa North 4.7 km/h 17.7 km/h 67% 0.0 mm 329 W/m2
18:00 20.8 °C 14.7 °C 1018.0 hPa NW 4.7 km/h 9.7 km/h 68% 0.0 mm 239 W/m2
18:05 20.7 °C 14.6 °C 1018.0 hPa WNW 3.2 km/h 14.5 km/h 68% 0.0 mm 311 W/m2
18:10 20.6 °C 14.9 °C 1018.0 hPa NNE 3.2 km/h 12.9 km/h 70% 0.0 mm 323 W/m2
18:15 20.6 °C 14.7 °C 1018.0 hPa WNW 1.4 km/h 11.3 km/h 69% 0.0 mm 178 W/m2
18:20 20.4 °C 14.3 °C 1018.0 hPa WNW 6.4 km/h 11.3 km/h 68% 0.0 mm 132 W/m2
18:25 20.2 °C 14.6 °C 1018.0 hPa ENE 3.2 km/h 9.7 km/h 70% 0.0 mm 105 W/m2
18:30 20.1 °C 14.7 °C 1018.0 hPa WNW 1.4 km/h 12.9 km/h 71% 0.0 mm 130 W/m2
18:35 20 °C 14.6 °C 1018.0 hPa NW 9.7 km/h 14.5 km/h 71% 0.0 mm 176 W/m2
18:40 19.9 °C 14.5 °C 1018.0 hPa West 3.2 km/h 6.4 km/h 71% 0.0 mm 97 W/m2
18:45 19.8 °C 14.6 °C 1018.0 hPa NNW 1.4 km/h 8 km/h 72% 0.0 mm 97 W/m2
18:50 19.8 °C 14.6 °C 1018.0 hPa North 13 km/h 14.5 km/h 72% 0.0 mm 81 W/m2
18:55 19.8 °C 14.6 °C 1018.0 hPa SW 4.7 km/h 16.1 km/h 72% 0.0 mm 165 W/m2
19:00 19.8 °C 14.6 °C 1018.0 hPa WSW 1.4 km/h 9.7 km/h 72% 0.0 mm 200 W/m2
19:05 19.9 °C 14.7 °C 1018.0 hPa NW 4.7 km/h 12.9 km/h 72% 0.0 mm 185 W/m2
19:10 19.9 °C 14.7 °C 1018.0 hPa North 4.7 km/h 6.4 km/h 72% 0.0 mm 88 W/m2
19:15 19.9 °C 14.5 °C 1018.0 hPa NW 13 km/h 16.1 km/h 71% 0.0 mm 130 W/m2
19:20 19.7 °C 14.3 °C 1018.0 hPa WSW 13 km/h 16.1 km/h 71% 0.0 mm 51 W/m2
19:25 19.4 °C 14.2 °C 1018.0 hPa NW 6.4 km/h 14.5 km/h 72% 0.0 mm 42 W/m2
19:30 19.3 °C 14.3 °C 1018.0 hPa NW 16.1 km/h 16.1 km/h 73% 0.0 mm 39 W/m2
19:35 19.2 °C 14.5 °C 1018.0 hPa West 11.1 km/h 14.5 km/h 74% 0.0 mm 39 W/m2
19:40 19.1 °C 14.4 °C 1018.0 hPa NW 3.2 km/h 6.4 km/h 74% 0.0 mm 46 W/m2
19:45 18.9 °C 14.2 °C 1018.0 hPa WNW 1.4 km/h 9.7 km/h 74% 0.0 mm 35 W/m2
19:50 18.8 °C 14.3 °C 1018.0 hPa WNW 3.2 km/h 4.8 km/h 75% 0.0 mm 26 W/m2
19:55 18.7 °C 14.2 °C 1018.0 hPa NW 4.7 km/h 8 km/h 75% 0.0 mm 25 W/m2
20:00 18.6 °C 14.3 °C 1018.3 hPa NNW 3.2 km/h 8 km/h 76% 0.0 mm 19 W/m2
20:05 18.6 °C 14.3 °C 1018.3 hPa NNW 1.4 km/h 6.4 km/h 76% 0.0 mm 16 W/m2
20:10 18.4 °C 14.1 °C 1018.3 hPa West 1.4 km/h 8 km/h 76% 0.0 mm 12 W/m2
20:15 18.3 °C 14.2 °C 1018.3 hPa WNW 4.7 km/h 14.5 km/h 77% 0.0 mm 9 W/m2
20:20 18.2 °C 14.1 °C 1018.3 hPa WNW 1.4 km/h 3.2 km/h 77% 0.0 mm 7 W/m2
20:25 18.1 °C 14 °C 1018.3 hPa WNW 3.2 km/h 9.7 km/h 77% 0.0 mm 5 W/m2
20:30 17.9 °C 14 °C 1018.3 hPa West 3.2 km/h 6.4 km/h 78% 0.0 mm 0 W/m2
20:35 17.8 °C 13.9 °C 1018.6 hPa West 4.7 km/h 6.4 km/h 78% 0.0 mm 0 W/m2
20:40 17.6 °C 13.9 °C 1018.3 hPa West 4.7 km/h 6.4 km/h 79% 0.0 mm 0 W/m2
20:45 17.4 °C 13.7 °C 1018.6 hPa West 3.2 km/h 6.4 km/h 79% 0.0 mm 0 W/m2
20:50 17.3 °C 13.8 °C 1018.6 hPa West 3.2 km/h 4.8 km/h 80% 0.0 mm 0 W/m2
20:55 17.2 °C 13.7 °C 1018.6 hPa WNW 4.7 km/h 9.7 km/h 80% 0.0 mm 0 W/m2
21:00 17.2 °C 13.7 °C 1018.6 hPa WNW 3.2 km/h 6.4 km/h 80% 0.0 mm 0 W/m2
21:05 17.1 °C 13.6 °C 1018.6 hPa WNW 4.7 km/h 8 km/h 80% 0.0 mm 0 W/m2
21:11 17.1 °C 13.6 °C 1018.6 hPa WNW 3.2 km/h 6.4 km/h 80% 0.0 mm 0 W/m2
21:16 17.1 °C 13.6 °C 1018.6 hPa WNW 3.2 km/h 9.7 km/h 80% 0.0 mm 0 W/m2
21:21 17 °C 13.7 °C 1018.6 hPa WNW 3.2 km/h 8 km/h 81% 0.0 mm 0 W/m2
21:26 16.9 °C 13.6 °C 1018.6 hPa SW 4.7 km/h 4.8 km/h 81% 0.0 mm 0 W/m2
21:31 16.8 °C 13.5 °C 1019.0 hPa West 4.7 km/h 4.8 km/h 81% 0.0 mm 0 W/m2
21:36 16.7 °C 13.6 °C 1019.0 hPa WNW 3.2 km/h 3.2 km/h 82% 0.0 mm 0 W/m2
21:41 16.7 °C 13.6 °C 1019.0 hPa West 3.2 km/h 6.4 km/h 82% 0.0 mm 0 W/m2
21:46 16.5 °C 13.6 °C 1019.0 hPa West 1.4 km/h 4.8 km/h 83% 0.0 mm 0 W/m2
21:51 16.4 °C 13.5 °C 1019.0 hPa Calm   1.6 km/h 83% 0.0 mm 0 W/m2
21:56 16.3 °C 13.6 °C 1019.0 hPa Calm   1.6 km/h 84% 0.0 mm 0 W/m2
22:01 16.2 °C 13.5 °C 1019.0 hPa West 3.2 km/h 3.2 km/h 84% 0.0 mm 0 W/m2
22:06 16.1 °C 13.6 °C 1019.0 hPa Calm   3.2 km/h 85% 0.0 mm 0 W/m2
22:11 16 °C 13.5 °C 1019.0 hPa Calm   1.6 km/h 85% 0.0 mm 0 W/m2
22:16 15.9 °C 13.4 °C 1019.0 hPa Calm     85% 0.0 mm 0 W/m2
22:21 15.8 °C 13.5 °C 1019.3 hPa Calm   3.2 km/h 86% 0.0 mm 0 W/m2
22:26 15.7 °C 13.4 °C 1019.3 hPa Calm   1.6 km/h 86% 0.0 mm 0 W/m2
22:31 15.6 °C 13.4 °C 1019.0 hPa WSW 4.7 km/h 4.8 km/h 87% 0.0 mm 0 W/m2
22:36 15.5 °C 13.3 °C 1019.0 hPa WSW 6.4 km/h 8 km/h 87% 0.0 mm 0 W/m2
22:41 15.6 °C 13.6 °C 1019.3 hPa WSW 4.7 km/h 4.8 km/h 88% 0.0 mm 0 W/m2
22:46 15.6 °C 13.4 °C 1019.0 hPa West 3.2 km/h 4.8 km/h 87% 0.0 mm 0 W/m2
22:51 15.6 °C 13.4 °C 1019.0 hPa West 3.2 km/h 4.8 km/h 87% 0.0 mm 0 W/m2
22:56 15.6 °C 13.4 °C 1019.0 hPa Calm   4.8 km/h 87% 0.0 mm 0 W/m2
23:01 15.6 °C 13.4 °C 1019.0 hPa Calm   1.6 km/h 87% 0.0 mm 0 W/m2
23:06 15.6 °C 13.4 °C 1019.0 hPa West 3.2 km/h 3.2 km/h 87% 0.0 mm 0 W/m2
23:11 15.5 °C 13.3 °C 1019.0 hPa WSW 3.2 km/h 9.7 km/h 87% 0.0 mm 0 W/m2
23:16 15.5 °C 13.5 °C 1019.3 hPa WSW 1.4 km/h 9.7 km/h 88% 0.0 mm 0 W/m2
23:21 15.6 °C 13.6 °C 1019.3 hPa West 3.2 km/h 4.8 km/h 88% 0.0 mm 0 W/m2
23:26 15.6 °C 13.6 °C 1019.3 hPa WSW 3.2 km/h 9.7 km/h 88% 0.0 mm 0 W/m2
23:31 15.6 °C 13.6 °C 1019.3 hPa West 3.2 km/h 6.4 km/h 88% 0.0 mm 0 W/m2
23:36 15.7 °C 13.7 °C 1019.3 hPa West 6.4 km/h 6.4 km/h 88% 0.0 mm 0 W/m2
23:41 15.7 °C 13.7 °C 1019.3 hPa West 3.2 km/h 4.8 km/h 88% 0.0 mm 0 W/m2
23:46 15.6 °C 13.6 °C 1019.3 hPa WSW 3.2 km/h 4.8 km/h 88% 0.0 mm 0 W/m2
23:51 15.6 °C 13.6 °C 1019.3 hPa West 1.4 km/h 3.2 km/h 88% 0.0 mm 0 W/m2
23:56 15.6 °C 13.6 °C 1019.3 hPa West 1.4 km/h 3.2 km/h 88% 0.0 mm 0 W/m2
Juneau County Weather
Compliments of Weather Underground - 4 mb